Weather Roundup
Issued by NWS Chicago, IL

Home | Current Version | Previous Version | Text Only | Print | Product List | Glossary On
Versions: 1 2 3 4 5 6 7 8 9 10 11 12 13 14 15 16 17 18 19 20 21 22 23 24 25 26 27 28 29 30 31 32 33 34 35 36 37 38 39 40 41 42 43 44 45 46 47 48 49 50
000
NZUS59 KLOT 261109
HRRLOT

CHICAGO AREA WEATHER ROUNDUP
NATIONAL WEATHER SERVICE CHICAGO/ROMEOVILLE IL
600 AM CDT FRI MAY 26 2017

NOTE: "FAIR" INDICATES FEW OR NO CLOUDS BELOW 12,000 FEET WITH NO
SIGNIFICANT WEATHER AND/OR OBSTRUCTIONS TO VISIBILITY.

* THESE STATIONS ARE NOT UNDER NWS QUALITY CONTROL. THEY ALSO MAY NOT
  REPORT WEATHER SUCH AS PRECIPITATION OR FOG.

ILZ005-006-012>014-019>023-261200-
NORTHEAST ILLINOIS

CITY           SKY/WX    TMP DP  RH WIND       PRES   REMARKS
OHARE          MOCLDY    53  50  89 CALM      29.84R
MIDWAY         CLOUDY    55  51  86 S3        29.85R
AURORA         PTCLDY    52  51  97 CALM      29.84S FOG
LANSING*         N/A     47  47 100 CALM      29.86R FOG
JOLIET*        FOG       53  53 100 CALM      29.85R VSB 1
WAUKEGAN       CLOUDY    52  52 100 CALM      29.84R FOG
DUPAGE AIRPORT CLOUDY    53  53 100 CALM      29.83S
WHEELING       CLOUDY    52  51  97 CALM      29.86R
KANKAKEE*      CLOUDY    51  51  97 CALM      29.86S FOG
MORRIS*        FOG       53  52  96 CALM      29.84R VSB 1
LEWIS AIRPORT* PTCLDY    52  52 100 SE3       29.85R FOG
NORTHERLY ISL    N/A     58  50  75 SW3         N/A
$$

WIZ051-052-058>065-066-070>072-261200-
SOUTHEAST WISCONSIN

CITY           SKY/WX    TMP DP  RH WIND       PRES   REMARKS
MILWAUKEE      CLOUDY    55  54  96 CALM      29.85R
KENOSHA*       CLOUDY    52  50  93 NE3       29.85R
RACINE*        CLOUDY    53  52  96 CALM      29.86R FOG
WAUKESHA       PTCLDY    52  52 100 SW3       29.86R FOG
WEST BEND      LGT RAIN  52  52 100 CALM      29.85R
$$

INZ001>003-010>013-019-020-261200-
NORTHWEST INDIANA

CITY           SKY/WX    TMP DP  RH WIND       PRES   REMARKS
GARY*          MOCLDY    50  50 100 CALM      29.86R
MICHIGAN CITY* NOT AVBL
RENSSELAER*    NOT AVBL
VALPARAISO     CLOUDY    52  50  93 W3        29.86R FOG
$$

LMZ740>746-261200-
SOUTHERN LAKE MICHIGAN

STATION/POSITION TIME  SKY/WX   TEMP WIND        PRES    VSBY
                                AIR  DIR/SP/G
                 (UTC)          (F)  (DEG/KT/KT) (MB)    (MI)
HARRISON CRIB    1040            58  280/  2/  3   N/A
BURNHAM HARBOR   1100            58  220/  4/  4   N/A
CALUMET HARBOR   1048            54  220/  2/  3 1010.5R
BURNS HARBOR     1040            53  200/  4/  5 1011.5R
MICHIGAN CITY    1040            52  140/  1/  1   N/A
$$

ABBREVIATIONS USED IN REMARKS
   TC - TEMPERATURE IN CELSIUS
  WCI - WIND CHILL INDEX
   HX - HEAT INDEX
  VSB - VISIBILITY
$$



USA.gov is the U.S. government's official web portal to all federal, state and local government web resources and services.